International Skating Union - Official Site

Essent ISU European Speed Skating Championships 2014
January 11-12, 2014

Draw | Lap Times | Index | Classification

Referee: Knut Arthur  OLSEN  (NOR)
Starter: Jan  ZWIER  (NED)
StartTime: EndTime: Air Temp: Ice Temp: Humidity:
15:41 16:58 16.2℃ -10.1℃ 15.8%
Result 10000m Men
Rankings as of Jan 12 2014 5:01PM
Rank: No.: Name: Nation: Time: Behind: Points:
1 18 Jan  Blokhuijsen NED NED 13:07.22400m - 34.37 - (34.3)
800m - 1:05.30 - (30.9)
1200m - 1:36.87 - (31.5)
1600m - 2:08.28 - (31.4)
2000m - 2:39.76 - (31.4)
2400m - 3:10.80 - (31.0)
2800m - 3:42.35 - (31.5)
3200m - 4:14.21 - (31.8)
3600m - 4:46.14 - (31.9)
4000m - 5:17.96 - (31.8)
4400m - 5:49.82 - (31.8)
4800m - 6:21.52 - (31.7)
5200m - 6:53.13 - (31.6)
5600m - 7:24.37 - (31.2)
6000m - 7:55.60 - (31.2)
6400m - 8:26.84 - (31.2)
6800m - 8:58.16 - (31.3)
7200m - 9:29.48 - (31.3)
7600m - 10:00.69 - (31.2)
8000m - 10:31.69 - (31.0)
8400m - 11:02.82 - (31.1)
8800m - 11:33.95 - (31.1)
9200m - 12:05.24 - (31.3)
9600m - 12:36.30 - (31.0)
10000m - 13:07.22 - (30.9)
39.361
2 23 Koen  Verweij NED NED 13:13.45400m - 34.42 - (34.4)
800m - 1:05.59 - (31.1)
1200m - 1:37.07 - (31.4)
1600m - 2:08.65 - (31.5)
2000m - 2:40.38 - (31.7)
2400m - 3:11.84 - (31.4)
2800m - 3:43.39 - (31.5)
3200m - 4:15.20 - (31.8)
3600m - 4:47.19 - (31.9)
4000m - 5:19.21 - (32.0)
4400m - 5:51.00 - (31.7)
4800m - 6:22.59 - (31.5)
5200m - 6:54.73 - (32.1)
5600m - 7:26.33 - (31.5)
6000m - 7:57.81 - (31.4)
6400m - 8:29.50 - (31.6)
6800m - 9:01.21 - (31.7)
7200m - 9:32.89 - (31.6)
7600m - 10:04.65 - (31.7)
8000m - 10:36.22 - (31.5)
8400m - 11:07.94 - (31.7)
8800m - 11:39.89 - (31.9)
9200m - 12:11.42 - (31.5)
9600m - 12:42.63 - (31.2)
10000m - 13:13.45 - (30.8)
6.23 39.672
3 3 Bart  Swings BEL BEL 13:17.41400m - 35.57 - (35.5)
800m - 1:07.69 - (32.1)
1200m - 1:39.70 - (32.0)
1600m - 2:11.50 - (31.7)
2000m - 2:42.81 - (31.3)
2400m - 3:14.18 - (31.3)
2800m - 3:45.74 - (31.5)
3200m - 4:17.58 - (31.8)
3600m - 4:49.48 - (31.9)
4000m - 5:21.34 - (31.8)
4400m - 5:53.19 - (31.8)
4800m - 6:25.32 - (32.1)
5200m - 6:57.39 - (32.0)
5600m - 7:29.00 - (31.6)
6000m - 8:00.74 - (31.7)
6400m - 8:32.39 - (31.6)
6800m - 9:04.39 - (32.0)
7200m - 9:36.07 - (31.6)
7600m - 10:07.67 - (31.6)
8000m - 10:39.04 - (31.3)
8400m - 11:10.46 - (31.4)
8800m - 11:41.99 - (31.5)
9200m - 12:13.85 - (31.8)
9600m - 12:45.50 - (31.6)
10000m - 13:17.41 - (31.9)
10.19 39.870
4 27 Sverre  Lunde Pedersen NOR NOR 13:20.50400m - 35.68 - (35.6)
800m - 1:07.59 - (31.9)
1200m - 1:39.40 - (31.8)
1600m - 2:11.15 - (31.7)
2000m - 2:43.26 - (32.1)
2400m - 3:15.41 - (32.1)
2800m - 3:47.62 - (32.2)
3200m - 4:19.59 - (31.9)
3600m - 4:51.83 - (32.2)
4000m - 5:23.74 - (31.9)
4400m - 5:55.81 - (32.0)
4800m - 6:27.67 - (31.8)
5200m - 6:59.67 - (32.0)
5600m - 7:31.34 - (31.6)
6000m - 8:03.02 - (31.6)
6400m - 8:34.54 - (31.5)
6800m - 9:06.10 - (31.5)
7200m - 9:37.53 - (31.4)
7600m - 10:09.06 - (31.5)
8000m - 10:40.46 - (31.4)
8400m - 11:11.90 - (31.4)
8800m - 11:43.49 - (31.6)
9200m - 12:15.46 - (31.9)
9600m - 12:47.54 - (32.0)
10000m - 13:20.50 - (32.9)
13.28 40.025
5 24 Håvard  Bøkko NOR NOR 13:22.09400m - 35.83 - (35.8)
800m - 1:07.57 - (31.7)
1200m - 1:39.36 - (31.7)
1600m - 2:11.49 - (32.1)
2000m - 2:43.39 - (31.9)
2400m - 3:15.46 - (32.0)
2800m - 3:47.51 - (32.0)
3200m - 4:19.76 - (32.2)
3600m - 4:51.79 - (32.0)
4000m - 5:23.97 - (32.1)
4400m - 5:55.83 - (31.8)
4800m - 6:27.96 - (32.1)
5200m - 6:59.63 - (31.6)
5600m - 7:31.46 - (31.8)
6000m - 8:03.05 - (31.5)
6400m - 8:34.75 - (31.7)
6800m - 9:06.12 - (31.3)
7200m - 9:37.74 - (31.6)
7600m - 10:09.21 - (31.4)
8000m - 10:40.99 - (31.7)
8400m - 11:12.96 - (31.9)
8800m - 11:45.04 - (32.0)
9200m - 12:17.12 - (32.0)
9600m - 12:49.38 - (32.2)
10000m - 13:22.09 - (32.7)
14.87 40.104
6 22 Renz  Rotteveel NED NED 13:26.75400m - 35.81 - (35.8)
800m - 1:08.43 - (32.6)
1200m - 1:41.08 - (32.6)
1600m - 2:13.13 - (32.0)
2000m - 2:45.37 - (32.2)
2400m - 3:17.71 - (32.3)
2800m - 3:50.02 - (32.3)
3200m - 4:22.25 - (32.2)
3600m - 4:54.45 - (32.2)
4000m - 5:26.69 - (32.2)
4400m - 5:58.86 - (32.1)
4800m - 6:31.24 - (32.3)
5200m - 7:03.51 - (32.2)
5600m - 7:35.64 - (32.1)
6000m - 8:07.67 - (32.0)
6400m - 8:39.60 - (31.9)
6800m - 9:11.42 - (31.8)
7200m - 9:43.13 - (31.7)
7600m - 10:14.87 - (31.7)
8000m - 10:46.57 - (31.7)
8400m - 11:18.43 - (31.8)
8800m - 11:50.38 - (31.9)
9200m - 12:22.57 - (32.1)
9600m - 12:54.81 - (32.2)
10000m - 13:26.75 - (31.9)
19.53 40.337
7 21 Douwe  de Vries NED NED 13:28.99400m - 35.75 - (35.7)
800m - 1:07.91 - (32.1)
1200m - 1:39.91 - (32.0)
1600m - 2:11.29 - (31.3)
2000m - 2:42.51 - (31.2)
2400m - 3:13.92 - (31.4)
2800m - 3:45.59 - (31.6)
3200m - 4:17.64 - (32.0)
3600m - 4:49.81 - (32.1)
4000m - 5:22.11 - (32.3)
4400m - 5:54.21 - (32.0)
4800m - 6:26.58 - (32.3)
5200m - 6:59.24 - (32.6)
5600m - 7:31.51 - (32.2)
6000m - 8:03.72 - (32.2)
6400m - 8:36.03 - (32.3)
6800m - 9:08.61 - (32.5)
7200m - 9:41.03 - (32.4)
7600m - 10:13.67 - (32.6)
8000m - 10:46.25 - (32.5)
8400m - 11:18.85 - (32.6)
8800m - 11:51.57 - (32.7)
9200m - 12:23.93 - (32.3)
9600m - 12:56.51 - (32.5)
10000m - 13:28.99 - (32.4)
21.77 40.449
8 32 Jan  Szymanski POL POL 13:53.34400m - 35.86 - (35.8)
800m - 1:08.67 - (32.8)
1200m - 1:41.10 - (32.4)
1600m - 2:13.73 - (32.6)
2000m - 2:45.78 - (32.0)
2400m - 3:18.55 - (32.7)
2800m - 3:51.14 - (32.5)
3200m - 4:23.24 - (32.1)
3600m - 4:56.24 - (33.0)
4000m - 5:29.68 - (33.4)
4400m - 6:03.11 - (33.4)
4800m - 6:36.66 - (33.5)
5200m - 7:10.93 - (34.2)
5600m - 7:44.62 - (33.6)
6000m - 8:17.37 - (32.7)
6400m - 8:50.09 - (32.7)
6800m - 9:23.20 - (33.1)
7200m - 9:56.96 - (33.7)
7600m - 10:30.42 - (33.4)
8000m - 11:04.38 - (33.9)
8400m - 11:38.52 - (34.1)
8800m - 12:13.03 - (34.5)
9200m - 12:47.03 - (34.0)
9600m - 13:20.25 - (33.2)
10000m - 13:53.34 - (33.0)
46.12 41.667